[[{"header":{"parameterUnit":"m.s-1","parameterCategory":1,"la1":30.2991,"la2":30.254,"lo1":-89.0895,"lo2":-89.0444,"dy":0.0017,"dx":0.0017,"nx":28,"ny":28,"refTime":"2024-04-13T09:00:00:Z","depth":0,"parameterNumber":2,"parameterNumberName":"U-component_of_WINDS"},"data":[0,0,0,0,0,0,0,0,0,0,0,0,0,0,0,0,0,0,0,0,0,0,0,0,0,0,0,0,0,0,0,0,0,0,0,0,0,0,0,0,0,0,0,0,0,0,0,0,0,0,0,0,0,0,0,0,0,0,1.1072,1.1072,0,1.1164,1.1165,1.1166,1.1194,1.1194,1.1193,1.1193,1.1287,1.129,1.1293,0,0,0,0,0,0,0,0,0,0,0,0,0,1.0916,1.0919,1.1071,1.1073,1.1074,1.1164,1.1165,1.1167,1.1194,1.1194,1.1193,1.1193,1.1286,1.129,1.1293,0,0,0,0,0,0,0,0,0,0,0,0,0,1.0994,1.092,1.1071,1.1099,1.1102,1.1164,1.1165,1.1167,1.1195,1.1194,1.1193,1.1193,1.1285,1.1289,1.1294,1.1335,0,0,1.1307,1.1309,0,0,0,0,0,0,0,0,1.0989,1.0999,1.1093,1.1097,1.1101,1.1167,1.1145,1.1223,1.1195,1.1159,1.1193,1.1192,1.1248,1.1255,1.1274,1.1339,1.1343,1.1308,1.131,1.1312,1.1313,0,0,0,0,0,0,0,1.0984,1.0996,1.1108,1.1095,1.1099,1.1105,1.1116,1.116,1.1206,1.1162,1.1165,1.1175,1.125,1.127,1.1277,1.1345,1.1308,1.1311,1.1314,1.1316,1.1446,1.1447,0,0,0,0,0,0,1.0974,1.0991,1.1105,1.1111,1.1042,1.1109,1.112,1.1146,1.1206,1.1214,1.1176,1.1176,1.1263,1.1271,1.128,1.1331,1.1312,1.1316,1.1319,1.1445,1.1446,1.1447,0,0,0,0,0,0,1.0971,1.0984,1.1101,1.1052,1.1067,1.1112,1.1141,1.1149,1.1169,1.1216,1.1224,1.1188,1.1262,1.1274,1.1321,1.1334,1.1318,1.1322,1.1444,1.1445,1.1447,1.1433,0,0,0,0,0,0,1.0966,1.0983,1.0999,1.1052,1.107,1.1141,1.1142,1.1151,1.1176,1.1178,1.123,1.1238,1.1263,1.1314,1.1325,1.134,1.1326,1.1443,1.1445,1.1446,1.1432,1.1433,1.1434,0,0,0,0,0,1.096,1.0992,1.1,1.1014,1.1091,1.1142,1.1152,1.118,1.1177,1.1194,1.1224,1.1236,1.1331,1.1318,1.1331,1.1348,1.1442,1.1444,1.1446,1.1432,1.1433,1.1434,0,0,0,0,0,0,1.094,1.1,1.1009,1.1059,1.1095,1.1147,1.1169,1.1181,1.1219,1.1219,1.1252,1.1264,1.1308,1.1333,1.1317,1.139,1.1387,1.1391,1.1372,1.1374,1.1375,1.1367,1.1329,0,0,0,0,0,1.0942,1.0978,1.1028,1.1067,1.1084,1.1123,1.1146,1.1165,1.1204,1.1219,1.1253,1.129,1.1328,1.1352,1.139,1.1436,1.1447,1.1453,1.1454,1.1455,1.1458,1.1483,1.1486,1.1453,1.1453,1.1453,0,0,1.0945,1.0982,1.1003,1.1064,1.1094,1.113,1.1136,1.1175,1.1201,1.1225,1.1271,1.1297,1.134,1.1386,1.1408,1.1408,1.147,1.1457,1.1458,1.1461,1.1485,1.1488,1.1491,1.1454,1.1454,1.1454,0,0,1.0969,1.1001,1.1036,1.1066,1.1112,1.1137,1.1145,1.1195,1.1212,1.1259,1.1277,1.1309,1.1374,1.1404,1.1427,1.146,1.1472,1.1472,1.1477,1.1501,1.1503,1.1506,1.1516,1.152,1.1475,1.1475,1.1475,0,1.0967,1.1023,1.1053,1.109,1.1115,1.1138,1.1173,1.12,1.1256,1.1273,1.1272,1.1353,1.1384,1.1436,1.1444,1.1463,1.1472,1.1466,1.1501,1.1503,1.1506,1.1516,1.152,1.1474,1.1475,1.1475,1.1475,0,1.1017,1.1056,1.1078,1.1131,1.1159,1.1195,1.1229,1.1254,1.1269,1.1294,1.134,1.1378,1.1423,1.1437,1.1453,1.1491,1.1489,1.1494,1.1492,1.1508,1.1519,1.1523,1.1474,1.1474,1.1474,1.1474,0,0,1.1032,1.11,1.1107,1.1131,1.1182,1.1212,1.1248,1.1291,1.1311,1.1348,1.1379,1.1432,1.1437,1.1463,1.1482,1.1503,1.1525,1.1505,1.1507,1.1507,1.1568,1.1563,1.1567,1.1533,1.1534,1.1535,1.1564,0,1.1062,1.1128,1.1155,1.1208,1.1242,1.1264,1.1295,1.1329,1.1353,1.1385,1.1411,1.1448,1.1452,1.1468,1.1489,1.1518,1.1537,1.1516,1.1561,1.1562,1.1549,1.1573,1.1569,1.1595,1.1568,1.1569,1.1569,0,1.1106,1.1142,1.1199,1.1244,1.126,1.1287,1.1329,1.136,1.1398,1.1414,1.1442,1.146,1.1498,1.1493,1.1544,1.1529,1.1549,1.1565,1.1567,1.1572,1.1566,1.1578,1.1604,1.1607,1.1576,1.1576,1.1575,0,1.1109,1.1173,1.1214,1.1234,1.1288,1.1307,1.133,1.1368,1.1392,1.1428,1.1443,1.1483,1.1505,1.1535,1.1562,1.1557,1.161,1.1608,1.1624,1.1623,1.1634,1.1633,1.1662,1.1647,1.1647,1.1647,1.1647,0,1.1139,1.1172,1.1216,1.1242,1.1279,1.1309,1.1345,1.137,1.1403,1.1433,1.1454,1.1481,1.1516,1.1548,1.1569,1.1608,1.1618,1.1631,1.1636,1.1628,1.1627,1.1642,1.164,1.1648,1.1648,1.1648,1.1648,0,1.1149,1.118,1.1227,1.1274,1.1286,1.1312,1.1352,1.1376,1.1401,1.1438,1.1449,1.1487,1.1525,1.1555,1.1605,1.1619,1.1659,1.1666,1.1646,1.1649,1.1662,1.166,1.1702,1.1708,1.1689,1.1689,1.169,0,1.1166,1.1192,1.1242,1.1263,1.1286,1.1321,1.1345,1.1375,1.1399,1.1444,1.1463,1.1503,1.1536,1.1595,1.1627,1.1665,1.1672,1.1684,1.1678,1.1669,1.1671,1.1668,1.1671,1.1684,1.1684,1.1684,1.1684,0,1.1192,1.1206,1.124,1.128,1.1308,1.134,1.1373,1.1389,1.1425,1.1451,1.149,1.1516,1.1566,1.1604,1.1645,1.1668,1.1682,1.1686,1.1691,1.1684,1.1671,1.1677,1.1647,1.1685,1.1685,1.1685,1.1685,1.1685,1.1206,1.1229,1.1267,1.1304,1.1332,1.1362,1.1387,1.1414,1.1447,1.149,1.1506,1.1546,1.1582,1.1638,1.1661,1.1692,1.1693,1.1701,1.1703,1.1705,1.1703,1.1666,1.17,1.17,1.17,1.17,1.17,0,1.1232,1.1257,1.1291,1.1336,1.1364,1.1375,1.1411,1.1434,1.1469,1.1502,1.1534,1.1578,1.1615,1.1649,1.1687,1.1705,1.1712,1.1714,1.1713,1.1718,1.17,1.1692,1.1708,1.1708,1.1708,1.1707,1.1707,1.1707,1.1249,1.1288,1.1306,1.1359,1.1384,1.1423,1.1443,1.147,1.1496,1.1544,1.1575,1.1597,1.163,1.1671,1.1704,1.1713,1.1726,1.1726,1.1737,1.172,1.1719,1.1718,1.171,1.1729,1.1729,1.1751,1.1752,1.1752]},{"header":{"parameterUnit":"m.s-1","parameterCategory":1,"la1":30.2991,"la2":30.254,"lo1":-89.0895,"lo2":-89.0444,"dy":0.0017,"dx":0.0017,"nx":28,"ny":28,"refTime":"2024-04-13T09:00:00:Z","depth":0,"parameterNumber":3,"parameterNumberName":"V-component_of_WINDS"},"data":[0,0,0,0,0,0,0,0,0,0,0,0,0,0,0,0,0,0,0,0,0,0,0,0,0,0,0,0,0,0,0,0,0,0,0,0,0,0,0,0,0,0,0,0,0,0,0,0,0,0,0,0,0,0,0,0,0,0,3.896,3.896,0,3.8979,3.8979,3.8979,3.8911,3.8908,3.8906,3.8904,3.8924,3.8926,3.8928,0,0,0,0,0,0,0,0,0,0,0,0,0,3.8863,3.8865,3.896,3.896,3.8961,3.8979,3.8979,3.8979,3.8911,3.8908,3.8906,3.8904,3.8923,3.8926,3.8929,0,0,0,0,0,0,0,0,0,0,0,0,0,3.8896,3.8866,3.896,3.8929,3.8926,3.8979,3.8979,3.898,3.8911,3.8908,3.8905,3.8902,3.8922,3.8925,3.8929,3.9013,0,0,3.894,3.8942,0,0,0,0,0,0,0,0,3.8894,3.89,3.8933,3.8931,3.8928,3.8939,3.8952,3.8991,3.8912,3.8917,3.8904,3.8901,3.8931,3.8934,3.8944,3.9014,3.9015,3.894,3.8943,3.8944,3.8945,0,0,0,0,0,0,0,3.8892,3.8898,3.8968,3.8934,3.8931,3.8913,3.8914,3.8959,3.8941,3.8916,3.8911,3.8915,3.8929,3.8941,3.8944,3.9015,3.894,3.8943,3.8946,3.8947,3.9152,3.9155,0,0,0,0,0,0,3.8894,3.8897,3.8967,3.8968,3.8903,3.8917,3.8919,3.8939,3.894,3.8938,3.8917,3.8911,3.8936,3.894,3.8945,3.9041,3.8944,3.8947,3.895,3.9148,3.9152,3.9156,0,0,0,0,0,0,3.8892,3.8901,3.8966,3.8931,3.8938,3.8922,3.8945,3.8941,3.8952,3.8941,3.8937,3.8932,3.8934,3.8939,3.8996,3.9041,3.8949,3.8952,3.9145,3.915,3.9154,3.9236,0,0,0,0,0,0,3.889,3.8901,3.8933,3.8932,3.894,3.9018,3.8948,3.8943,3.8959,3.8951,3.8954,3.8952,3.8932,3.8991,3.8999,3.9044,3.8955,3.914,3.9147,3.9153,3.923,3.9244,3.9255,0,0,0,0,0,3.8887,3.8956,3.8935,3.8944,3.8981,3.9021,3.9025,3.9001,3.8963,3.8994,3.8987,3.8952,3.9035,3.8997,3.9006,3.9053,3.9138,3.9145,3.9152,3.9224,3.9241,3.9255,0,0,0,0,0,0,3.8963,3.8956,3.8932,3.9004,3.9013,3.9009,3.9049,3.902,3.9041,3.9033,3.9001,3.9003,3.9064,3.9064,3.9023,3.9133,3.9079,3.9089,3.9131,3.9147,3.9159,3.9158,3.8958,0,0,0,0,0,3.8988,3.9022,3.9013,3.9077,3.9083,3.9065,3.9082,3.9062,3.9071,3.9075,3.9071,3.9081,3.9109,3.9128,3.9153,3.9229,3.9228,3.9266,3.9279,3.9289,3.9298,3.9336,3.9352,3.918,3.918,3.918,0,0,3.9041,3.9041,3.9064,3.9093,3.9098,3.9132,3.9069,3.9109,3.9134,3.9081,3.9133,3.9131,3.914,3.9206,3.9235,3.9208,3.9345,3.9299,3.9307,3.931,3.9345,3.9361,3.9376,3.9185,3.9184,3.9183,0,0,3.9154,3.9158,3.921,3.9216,3.9225,3.9212,3.9224,3.9224,3.922,3.9273,3.9232,3.9262,3.9311,3.9318,3.9328,3.9441,3.9409,3.945,3.9518,3.9555,3.9569,3.9581,3.9619,3.9634,3.9459,3.9459,3.9459,0,3.9218,3.9269,3.9241,3.9283,3.9296,3.9248,3.93,3.9308,3.9324,3.9334,3.9303,3.9362,3.9365,3.9431,3.9458,3.9469,3.9481,3.945,3.9569,3.9581,3.9591,3.9628,3.9643,3.9464,3.9463,3.9463,3.9463,0,3.9346,3.9382,3.9423,3.9439,3.9457,3.9504,3.9482,3.9503,3.9482,3.9472,3.9524,3.9526,3.9549,3.9564,3.9543,3.9626,3.9609,3.9575,3.952,3.9613,3.9647,3.9661,3.9471,3.9469,3.9468,3.9467,0,0,3.9509,3.9507,3.9523,3.9528,3.9533,3.956,3.9604,3.9626,3.9644,3.9657,3.9692,3.9734,3.9701,3.9712,3.9692,3.9725,3.9813,3.9686,3.9686,3.9708,3.9902,3.9927,3.9944,3.9792,3.9794,3.9796,3.9901,0,3.9619,3.9694,3.9669,3.9745,3.9776,3.973,3.9768,3.9775,3.9767,3.9792,3.9782,3.9812,3.9767,3.9773,3.9804,3.9796,3.9851,3.9788,3.9823,3.9825,3.9821,3.9962,3.9989,4.0088,3.9914,3.9916,3.9918,0,3.9757,3.9773,3.9852,3.9849,3.9861,3.9896,3.9913,3.9938,3.9944,3.9935,3.9947,3.992,3.9961,3.9907,3.9964,3.9921,3.9934,3.9932,3.9935,3.9937,3.9876,3.9966,4.0119,4.0133,3.9939,3.9937,3.9936,0,3.9865,3.9908,3.9959,3.9966,3.9964,3.9989,3.9989,3.9992,4.0006,4.0022,4.003,4.0051,4.0062,4.0078,4.0056,4.0019,4.0115,4.0059,4.0108,4.0108,4.013,4.0128,4.0286,4.014,4.014,4.014,4.0139,0,3.999,4.0039,4.0008,4.004,4.0093,4.0064,4.0117,4.0113,4.0115,4.0144,4.0106,4.0135,4.0104,4.013,4.0113,4.0161,4.0167,4.016,4.0155,4.0163,4.0164,4.017,4.0162,4.0144,4.0143,4.0142,4.0141,0,4.012,4.0101,4.0154,4.0147,4.0147,4.0186,4.018,4.0209,4.0197,4.0235,4.0242,4.0224,4.0251,4.0231,4.0259,4.0247,4.031,4.0296,4.0308,4.0304,4.0353,4.0348,4.0519,4.0539,4.0382,4.0384,4.0385,0,4.02,4.0237,4.0233,4.025,4.0252,4.028,4.0294,4.0266,4.0282,4.029,4.0317,4.0342,4.0359,4.0406,4.0395,4.0415,4.04,4.0459,4.0403,4.0409,4.0399,4.0397,4.04,4.047,4.0472,4.0473,4.0474,0,4.0344,4.0332,4.0353,4.0371,4.0388,4.0401,4.0411,4.0427,4.0398,4.0418,4.0445,4.0459,4.0486,4.051,4.0527,4.0526,4.0495,4.0492,4.0504,4.0512,4.0517,4.0513,4.0337,4.0488,4.0487,4.0486,4.0485,4.0484,4.045,4.048,4.0481,4.0506,4.051,4.0519,4.0545,4.0536,4.0558,4.0578,4.056,4.0592,4.0595,4.0613,4.0617,4.0641,4.0617,4.0635,4.0639,4.0644,4.065,4.0514,4.0644,4.0644,4.0644,4.0643,4.0643,0,4.059,4.0588,4.0611,4.0625,4.0644,4.0613,4.0621,4.0639,4.0668,4.0673,4.0691,4.0721,4.0744,4.0734,4.0754,4.0775,4.0761,4.0781,4.0779,4.0779,4.0672,4.0658,4.0792,4.0792,4.0792,4.0792,4.0792,4.0792,4.0665,4.0713,4.0701,4.0749,4.0747,4.0778,4.0785,4.0793,4.0797,4.0832,4.0851,4.0844,4.0843,4.0861,4.0881,4.0877,4.0885,4.091,4.0902,4.0801,4.0787,4.0773,4.076,4.0913,4.0913,4.1006,4.1007,4.1008]}]]